Location: Essen
(51.4609°N, 7.0127°E)
Time: 02:50:37
(UTC+01:00)

ISS - Pass Details

Date: 10 January 2018
Orbit: 402 x 407 km, 51.6° (Epoch: 23 January)

Event Time Altitude Azimuth Distance (km) Brightness Sun altitude
Exits shadow 06:30:49 56° 232° (SW) 492 -3.7 -18.3°
Maximum altitude 06:31:10 60° 199° (SSW) 469 -3.7 -18.3°
Drops below altitude 10° 06:34:25 10° 118° (ESE) 1,467 0.2 -17.8°
Sets 06:36:30 0° 115° (ESE) 2,326 1.6 -17.4°
